www.pogodaiklimat.ru

Погода и климат >> Архив погоды >> Иран >> Табас


ПОГОДА в Табасе

  • Прогноз погоды в Табасе
  • Монитор погоды в Табасе

АРХИВ ПОГОДЫ в Табасе

Время (UTC), дата Ветер
(напр.,м/с)
 
Видим.   Явления Облачность Т
(С)
Тd
(С)
f
(%)
Тe
(С)
Тes
(С)
Комфортность P
(гПа)
Po
(гПа)
Тmin
(С)
Tmax
(С)
R
(мм)
R24
(мм)
S
(см)
18 15.03 ЮЗ 4 6000 м мгла {дождь} 6/3 1200 м
[Frnb As op Cs]
+18.5 +6.3 45 +19 +19 1007.1 928.0 0.0
21 15.03 СЗ 4 6000 м мгла 4/0
[Ac As]
+13.7 +9.0 73 +12 +12 1010.3 930.7
00 16.03 С 2 6000 м мгла 4/0
[Ac As]
+13.7 +8.1 69 +13 +13 1010.7 931.2
03 16.03 штиль 0 10 км 3/3 900 м
[Cu hum]
+12.4 +6.8 69 +12 +13 1013.7 932.8 +12.4
06 16.03 штиль 0 15 км 1/1 1000 м
[Cu hum]
+19.3 +1.1 30 +19 +32 опасность
простуды
1014.4 934.3
09 16.03 В 2 15 км 1/1 1000 м
[Cu hum]
+21.8 -1.7 21 +21 +34 комфорт 1013.3 933.0
12 16.03 штиль 0 15 км ясно +24.1 -1.0 19 +23 +29 комфорт 1010.9 931.1
15 16.03 СВ 2 15 км ясно +21.2 -1.8 21 +21 +21 комфорт 1010.8 930.4 +24.9
18 16.03 штиль 0 15 км ясно +18.1 -1.9 26 +18 +18 1010.3 930.5
21 16.03 штиль 0 15 км ясно +15.6 -0.3 34 +16 +16 1009.2 929.5
00 17.03 штиль 0 10 км ясно +13.6 +1.3 43 +14 +14 1008.3 928.7
03 17.03 штиль 0 10 км ясно +13.3 +0.5 42 +13 +14 1009.4 929.3 +12.3
06 17.03 штиль 0 8000 м мгла 4/0
[Cs]
+18.5 +1.0 31 +19 +32 опасность
простуды
1009.7 929.9
09 17.03 ЮВ 6 6000 м мгла 4/0
[Cs]
+26.9 +1.8 20 +25 +31 комфорт 1003.3 924.7
12 17.03 ЮВ 10 4000 м пыльный позёмок 9/5 1200 м
[Cu med, cong As op]
+26.1 -1.4 16 +24 +24 комфорт 999.1 920.5
18 17.03 З 5 3000 м гроза, ливневой дождь {метель} 10/8 1050 м
[Cb cap As op]
+13.2 +10.6 84 +11 +11 1002.5 922.8 9
21 17.03 ЮВ 3 5000 м в посл. час дождь 10/5 900 м
[Frnb As op]
+13.6 +9.9 78 +12 +12 1001.3 922.8
00 18.03 ЮЗ 2 10 км зарница {дождь} 1/1 1050 м
[Cb calv]
+12.6 +4.4 57 +12 +12 1002.0 923.1 7
03 18.03 ЮВ 2 15 км 5/5 1200 м
[Sc Ac As]
+12.5 +3.2 53 +12 +12 1004.5 925.0 +11.7
06 18.03 ЮВ 3 20 км 6/5 1200 м
[Sc Ac As]
+14.2 +4.4 52 +13 +17 1007.4 926.6
09 18.03 З 4 15 км слаб. дождь 6/5 900 м
[Cb calv As op]
+17.2 -0.2 31 +17 +21 1006.8 926.4
12 18.03 СЗ 3 10 км 8/4 900 м
[Cb calv As op]
+16.7 +1.9 37 +17 +18 1008.2 927.5 0.0
15 18.03 штиль 0 5000 м мгла 9/4 900 м
[Cb calv As op]
+15.1 +3.2 45 +15 +15 1010.1 929.1 +17.4
18 18.03 В 2 4000 м мгла 1/0
[Ci fib]
+12.6 +5.6 62 +12 +12 1011.8 930.6
21 18.03 штиль 0 5000 м мгла ясно +11.3 +4.5 63 +11 +11 1011.8 930.8
00 19.03 штиль 0 6000 м мгла ясно +10.2 +4.1 66 +10 +10 1012.1 930.8
03 19.03 СЗ 3 15 км 1/0
[Ac As]
+11.9 +1.5 49 +11 +11 1014.2 932.7 +8.5
06 19.03 штиль 0 15 км 1/1 1000 м
[Cu hum]
+15.7 +1.1 37 +16 +29 опасность
простуды
1015.8 934.4
09 19.03 СЗ 5 15 км 1/1 1050 м
[Cu hum]
+17.2 -0.3 30 +17 +24 1015.0 933.6
12 19.03 З 4 15 км 4/4 900 м
[Cu med, cong]
+19.2 -0.9 26 +19 +21 1013.2 932.1
15 19.03 С 2 15 км 1/1 1200 м
[Sc diur, vesp]
+16.6 -0.7 31 +17 +17 1013.7 932.4 +20.1 666
18 19.03 В 3 10 км ясно +14.3 +1.1 41 +14 +14 1014.0 932.9
21 19.03 штиль 0 10 км ясно +11.6 +2.2 52 +11 +11 1013.8 932.6
00 20.03 штиль 0 10 км ясно +9.3 +2.8 64 +9 +9 1012.9 931.8
03 20.03 штиль 0 10 км ясно +8.8 +2.7 66 +8 +9 1014.5 932.8 +8.3
06 20.03 ЮВ 2 15 км ясно +14.7 +1.7 41 +15 +26 опасность
простуды
1015.3 934.0
09 20.03 штиль 0 20 км 3/3 900 м
[Cu hum]
+19.6 +1.3 29 +20 +34 опасность
простуды
1013.5 932.6
12 20.03 С 2 20 км 3/3 900 м
[Cu hum]
+22.3 -3.5 18 +21 +24 комфорт 1011.4 930.7
15 20.03 СЗ 2 10 км 1/1 900 м
[Cu hum]
+18.7 -1.1 26 +19 +19 1012.2 930.9 +22.5
18 20.03 СВ 2 10 км ясно +16.5 +0.5 34 +17 +17 1011.7 931.0
21 20.03 штиль 0 10 км ясно +14.2 +1.0 41 +14 +14 1010.3 930.0
00 21.03 штиль 0 10 км ясно +11.6 +2.8 55 +11 +11 1009.2 929.1
03 21.03 штиль 0 10 км 1/0
[Cc]
+10.7 +3.0 59 +10 +11 1011.6 930.7 +9.7
06 21.03 ЮВ 2 15 км 1/1 1200 м
[Sc]
+16.6 +2.3 38 +17 +27 1013.1 932.5
09 21.03 СЗ 5 20 км 1/1 900 м
[Cu hum]
+20.4 +0.8 27 +20 +28 1011.9 931.6 666
12 21.03 З 3 20 км 3/3 900 м
[Cu hum]
+22.2 -0.4 22 +21 +24 комфорт 1010.5 930.2
15 21.03 З 3 15 км 4/1 900 м
[Cu hum Ac As]
+18.8 -0.9 26 +19 +19 1011.9 930.9 +22.7 666
18 21.03 С 4 10 км 3/1 900 м
[Cu hum Ac As]
+16.4 +1.7 37 +16 +16 1010.7 930.3
21 21.03 З 2 10 км 3/0
[Ac trans]
+13.5 +3.4 50 +13 +13 1011.9 931.6
00 22.03 С 6 10 км 1/0
[Ac trans]
+12.0 +2.5 52 +10 +10 1012.9 932.5
03 22.03 С 5 10 км 1/1 900 м
[Cu hum]
+11.0 +1.4 52 +9 +9 1016.4 935.1 +10.8
06 22.03 штиль 0 15 км 1/1 1050 м
[Cu hum]
+14.9 +1.4 40 +15 +29 опасность
простуды
1018.2 937.0
09 22.03 штиль 0 15 км 4/4 1050 м
[Cu med, cong]
+18.8 +0.5 29 +19 +31 опасность
простуды
1016.7 935.7
12 22.03 З 5 10 км 4/4 1050 м
[Cu med, cong]
+19.7 -3.5 21 +19 +21 1015.1 934.1
15 22.03 СЗ 3 10 км ясно +17.1 -2.4 26 +17 +17 1016.1 934.6 +19.8

 

Местоположение метеостанции Табас (Иран): широта 33.60 долгота 56.92 высота над уровнем моря 711 м.

В архиве по умолчанию представлена погода в Табасе за последнюю неделю. Архивные данные за месяц целиком и за предыдущие месяцы, начиная с января 2011 года, Вы можете получить, выбрав интересующий диапазон дат из раскрывающегося списка и нажав кнопку "Ввод!".


*Определитесь, кто Вы:
робот инопланетянин человек

Внимание! Время в таблицах - всемирное. Для получения местного времени необходимо прибавить поправку, которая равна 3.5 ч.

Смотрите также архив погоды в соседних городах и на ближайших метеорологических станциях:

Погода в Фердоусе (Иран) (125 км)
Погода в Хоре (Иран) (171 км)
Погода в Бирдженде (Иран) (227 км)
Погода в Кашмаре (Иран) (228 км)
Погода в Торбете-Хейдерие (Иран) (281 км)
Погода в Себзеваре (Иран) (299 км)
Погода в Йезде (Иран) (311 км)
Погода в Шахруде (Иран) (361 км)
Погода в Нехбандане (Иран) (371 км)
Погода в Кермане (Иран) (373 км)

Пояснения к столбцам:

Ветер - указаны скорость ветра в м/с - средняя за 10 мин, порывы в срок и между сроками (в фигурных скобках) и направление, откуда дует ветер: С - северный, СВ - северо-восточный, В - восточный, ЮВ - юго-восточный, Ю - южный, ЮЗ - юго-западный, З - западный, СЗ - северо-западный.
Видимость - горизонтальная дальность видимости в метрах или километрах. При видимости от 1 до 10 км при отсутствии осадков обычно наблюдается дымка, при ухудшении видимости до 1 км и менее - туман. В сухую погоду видимость может ухудшаться дымом, пылью или мглою.
Явления - указаны атмосферные явления, наблюдавшиеся в срок или в последний час перед сроком; фигурными скобками обозначены явления, наблюдавшиеся между сроками (за 1-3 часа до срока); квадратными скобками обозначены град или гололедные отложения с указанием их диаметра в мм.
Облачность - указаны через наклонную черту общая и нижняя облачность в баллах и высота нижней границы облаков в метрах; квадратными скобками обозначены формы облаков: Ci - перистые, Cs - перисто-слоистые, Cc - перисто-кучевые, Ac - высококучевые, As - высокослоистые, Sc - слоисто-кучевые, Ns - слоисто-дождевые, Cu - кучевые, Cb - кучево-дождевые. Подробнее классификацию облаков см. в Атласе облаков (PDF).
T - Температура воздуха - температура, измеренная на высоте 2 м над землей.
Td - Температура точки росы - температура, при понижении до которой содержащийся в воздухе водяной пар достигнет насыщения.
f - Относительная влажность воздуха - влажноcть воздуха, измеренная на высоте 2 м над землей.
Te - Эффективная температура - температура, которую ощущает одетый по сезону человек в тени. Характеристика душности погоды. При расчете учитывается влияние влажности воздуха и скорости ветра на теплоощущения человека.
Tes - Эффективная температура на солнце - температура, которую ощущает человек, с поправкой на солнечный нагрев. Характеристика знойности погоды. Зависит от высоты солнца над горизонтом, облачности и скорости ветра. Ночью, в пасмурную погоду, а также при ветре 12 м/с и более поправка равна нулю.
P - Атмосферное давление - приведенное к уровню моря атмосферное давление.
Po - Атмосферное давление - измеренное на уровне метеостанции атмосферное давление.
Tmin - Минимальная температура - минимум температуры воздуха на высоте 2 м над землей.
Tmax - Максимальная температура - максимум температуры воздуха на высоте 2 м над землей.
R - Количество осадков - Количество выпавших осадков за период времени, мм. При наведении курсора мыши на число - период времени, за который выпало указанное количество осадков.
R24 - Количество осадков - Количество выпавших осадков за 24 часа, мм.
S - Снежный покров - Высота снежного покрова, см. При наведении курсора мыши на число - состояние снежного покрова и степень покрытия местности в баллах.